Location: Arbon
(43.0005°N, 0.7472°E)
Time: 22:30:02
(UTC+00:00)

Altair - Pass Details

Date: 29 November 2020
Orbit: 1501 x 1682 km, 47.2° (Epoch: 26 January)

Event Time Altitude Azimuth Distance (km) Brightness Sun altitude
Rises 04:56:18 0° 286° (WNW) 4,644 - -23.3°
Reaches altitude 10° 05:01:27 10° 262° (W) 3,675 - -22.3°
Maximum altitude 05:05:20 13° 236° (WSW) 3,426 - -21.6°
Exits shadow 05:06:06 13° 231° (SW) 3,440 9.0 -21.5°
Drops below altitude 10° 05:09:17 10° 211° (SSW) 3,712 9.3 -20.9°
Sets 05:14:35 0° 187° (S) 4,729 10.1 -20.0°
